Колюбакино

Россия / Московская область     55°40′03″N   36°31′46″E
темп.,
°C
ветер,
м/с
пор.,
м/с
влажн.,
%
обл.,
%
осадки,
мм/ч
давл.,
гПа
погр.,
м
12 апреля, пн
пн1200:00+7юв22770 0.0 103213
03:00+6юв22804 0.0 103311
06:00+4вюв2583100 0.0 103399
09:00+9вюв41163100 0.0 1033507
12:00+12вюв51047100 0.0 1031840
15:00+13вюв5950100 0.0 1030936
18:00+11вюв41167100 0.0 1028652
21:00+10юв4128299 0.0 1028459
13 апреля, вт
вт1300:00+8вюв31194100 0.0 1027319
03:00+7вюв3109763 0.0 1026226
06:00+6юв2995100 0.0 1025203
09:00+12ююв3870100 0.0 1024344
12:00+17ю4855100 0.0 1024734
15:00+19ю4744100 0.0 10231713
18:00+17ююв375261 0.0 1022208
21:00+12юв397089 0.0 1023151
14 апреля, ср
ср1400:00+10юв3127382 0.0 1022256
03:00+8ююв211757 0.0 1022214
06:00+7ююв228058 0.0 102238
09:00+13ююв485954 0.0 1021362
12:00+18ююв4743100 0.0 10191034
15:00+19ююв463775 0.0 10181810
18:00+17ююв364569 0.0 1018211
21:00+11юв2463100 0.0 101864
15 апреля, чт
чт1500:00+10юв2367100 0.0 101842
03:00+9ю2271100 0.0 101813
06:00+8вюв1172100 0.0 101710
09:00+12юв2359100 0.0 1017211
12:00+16юз2358100 0.0 1017703
15:00+17юз1250100 0.0 10161417
18:00+16всв1161100 0.0 101613
21:00+11ссв2281100 0.6 101618
16 апреля, пт
пт1600:00+9с2491100 0.2 1017102
03:00+7ссв4995100 0.2 1017246
06:00+7ссв5993100 0.0 1017375
09:00+8св61085100 0.0 1018529
12:00+10св6873100 0.0 1019848
15:00+8св61178100 0.0 1021787
18:00+8св51268100 0.0 1023987
21:00+6св613552 0.0 1024957